Location: Eastchurch
(51.4000°N, 0.8667°E)
Time: 00:29:52
(UTC+00:00)

SMAP - Pass Details

Date: 19 January 2026
Orbit: 682 x 683 km, 98.1° (Epoch: 18 February)

Event Time Altitude Azimuth Distance (km) Brightness Sun altitude
Rises 16:57:54 0° 158° (SSE) 3,036 6.5 -5.5°
Reaches altitude 10° 17:00:08 10° 157° (SSE) 2,125 5.7 -5.8°
Maximum altitude 17:04:46 75° 73° (ENE) 714 3.0 -6.5°
Drops below altitude 10° 17:09:27 10° 348° (NNW) 2,141 5.5 -7.1°
Sets 17:11:42 0° 347° (NNW) 3,061 6.3 -7.4°
